TimeMDT,TemperatureF,Dew PointF,Humidity,Sea Level PressureIn,VisibilityMPH,Wind Direction,Wind SpeedMPH,Gust SpeedMPH,PrecipitationIn,Events,Conditions,WindDirDegrees,DateUTC
12:58 AM,32.7,15.6,49,30.26,10.0,WNW,9.2,-,N/A,,Clear,300,2013-04-23 06:58:00
1:58 AM,34.2,15.8,47,30.28,10.0,NW,8.1,-,N/A,,Clear,320,2013-04-23 07:58:00
2:58 AM,32.4,17.6,55,30.31,10.0,North,4.6,-,N/A,,Clear,10,2013-04-23 08:58:00
3:58 AM,33.4,18.1,54,30.31,10.0,North,9.2,-,N/A,,Clear,350,2013-04-23 09:58:00
4:58 AM,31.3,16.9,55,30.32,10.0,NNW,4.6,-,N/A,,Clear,340,2013-04-23 10:58:00
5:58 AM,29.5,16.7,59,30.32,10.0,NE,6.9,-,N/A,,Clear,50,2013-04-23 11:58:00
6:58 AM,28.8,16.7,61,30.33,10.0,North,2.3,-,N/A,,Clear,360,2013-04-23 12:58:00
7:58 AM,29.5,17.2,60,30.36,10.0,NW,3.5,-,N/A,,Clear,320,2013-04-23 13:58:00
8:58 AM,37.2,18.5,47,30.36,10.0,NNE,1.2,-,N/A,,Clear,20,2013-04-23 14:58:00
9:58 AM,41.7,11.8,30,30.35,10.0,ESE,4.6,-,N/A,,Clear,110,2013-04-23 15:58:00
10:58 AM,43.3,13.3,30,30.33,10.0,Variable,3.5,-,N/A,,Clear,0,2013-04-23 16:58:00
11:58 AM,46.4,14.7,28,30.31,10.0,ENE,6.9,-,N/A,,Clear,70,2013-04-23 17:58:00
12:58 PM,49.6,15.6,26,30.28,10.0,Variable,2.3,-,N/A,,Clear,0,2013-04-23 18:58:00
1:58 PM,52.3,14.4,22,30.24,10.0,East,2.3,-,N/A,,Partly Cloudy,90,2013-04-23 19:58:00
2:58 PM,52.5,12.7,21,30.21,10.0,Variable,1.2,-,N/A,,Partly Cloudy,0,2013-04-23 20:58:00
3:58 PM,54.1,7.0,15,30.18,10.0,Variable,6.9,-,N/A,,Mostly Cloudy,0,2013-04-23 21:58:00
4:58 PM,55.8,7.3,14,30.14,10.0,NW,11.5,-,N/A,,Mostly Cloudy,320,2013-04-23 22:58:00
5:58 PM,55.0,5.2,13,30.14,10.0,West,10.4,-,N/A,,Overcast,280,2013-04-23 23:58:00
6:58 PM,54.5,6.4,14,30.14,10.0,NNW,13.8,-,N/A,,Overcast,330,2013-04-24 00:58:00
7:56 PM,51.8,5.0,15,30.10,10.0,NW,15.0,-,N/A,,Mostly Cloudy,320,2013-04-24 01:56:00
8:58 PM,47.5,8.4,21,30.14,10.0,WNW,10.4,-,N/A,,Overcast,290,2013-04-24 02:58:00
9:58 PM,40.5,9.5,28,30.17,10.0,WNW,9.2,-,N/A,,Clear,300,2013-04-24 03:58:00
10:58 PM,38.8,13.5,35,30.18,10.0,NW,10.4,-,N/A,,Clear,310,2013-04-24 04:58:00
11:58 PM,36.3,11.7,36,30.19,10.0,West,6.9,-,N/A,,Clear,280,2013-04-24 05:58:00